STARLINK-34574, 64714

Orbit data source: Space-Track

STARLINK-34574, 64714 is a payload satellite owned by SpaceX/Seattle (US) in LEO that was launched on Sat, 28 Jun 2025 UTC via an FALCON 9 launch vehicle from the Air Force Western Test Range (AFWTR). Payload-class satellites include a variety of spacecraft equipped with specific instruments for various scientific and technological missions. These include communications satellites like Starlink; space stations such as the ISS; scientific satellites like the Hubble; Earth observation satellites from companies like Planet Labs, Umbra, and HawkEye 360; GPS; miniature CubeSats for education and research; and military/defense satellites.

Loading next visibility...
Identifier
64714, 2025-142U
Orbit
LEO
Country
Flag of USUS
Related business
Manufacturer
SpaceX/Seattle
Mission
Operational Commercial Communications
Bus & Motor
STARLINK V2MO, Unknown motor
Mass
575 kg wet, ~530 kg dry
Launch date (UTC)
2025-06-28 (11 months ago)
Launch vehicle
FALCON 9
Launch site
Air Force Western Test Range (AFWTR)
Object type
Payload
Rocket body
Debris
Shape & HBR
Box + 2 Pan, 17.7 m
Radar Cross Section
36.964 m², Large (>1 m²)

Expand to show TLE details & history
Last TLE update: 9 hours ago

TLE from 9 hours ago
0 STARLINK-34574
1 64714U 25142U   26145.35897368  .00001724  00000-0  15220-3 0  9990
2 64714  70.0001 121.1997 0004048 265.6734  94.3963 14.98338218 50973
Epoch: 2026-05-25T08:36Z
TLE epoch observation values (Epoch: 2026-05-25T08:36:55.325Z)
Latitude
-0.00001°
Longitude
109.02127°
Altitude
574.671 km
Speed
7.574 km/s
True Right ascension
08h 04m 47s
True Declination
0° 00' 00"
Sunlit
Object was in daylight at epoch
Visualization orbit readout
Latitude
Unknown
Longitude
Unknown
Altitude
Unknown
Speed
Unknown
Apparent Right ascension
Unknown
Apparent Declination
Unknown
Sunlit
N/A
Visualization observer readout
Local Sidereal Time
03:10:59
Azimuth
Unknown
Elevation
Unknown
Doppler factor
Unknown
Orbital elements
Apogee altitude
572.791 km
Perigee altitude
567.166 km
Semi-major axis
6,948.116 km
Eccentricity
0.0004
Inclination
70.0001°
RAAN
121.1997°
Arg. of periapsis
265.6734°
True anomaly
94.44255°
Mean anomaly
94.3963°
Eccentric anomaly
94.41942°
Mean motion
3.74751 °/min
Orbital period
96.06 mins
BSTAR
0.0001522
Loading maneuver chart data...
Computing Atmospheric mass density...
Loading historical data...
Loading historical data...
Loading historical data...
Loading historical data...
Loading historical data...
Loading historical data...
Loading historical data...

Documentation

Showing up to 5 results
|